COSMOS 1275 DEB

Satellite information

Favourite Embed

Satellite Type and Status

DEBRISIN ORBIT

Key statistics

Satellite COSMOS 1275 DEB at a glance.

Uptime

16164

Days in orbit

Revolutions

≈ 14.2

Per day

Orbit

LEO

Low Earth Orbit

Inclination

82.9

Latest

Satellite identification and parameters

Extended collection of information and parameters for COSMOS 1275 DEB.

Object identification

Identified? True

Debris? True

Object name: COSMOS 1275 DEB

International designator: 1981-053KJ

Object number (NORAD): 17615

Object ID (CCSDS): 17615

Country: COMMONWEALTH OF INDEPENDENT STATES (CIS)

Current information (Y/N): Y

RCS size: SMALL

Orbital parameters

Period: 101.719 minutes

Inclination: 82.8575 deg

SMA: 7218.201 km

Apoapsis: 870.464 km

Periapsis: 809.667 km

RAAN: 339.6358 deg

Eccentricy: 0.00421138

Argument of periapsis: 146.5656 deg

Mean anomaly: 341.671 deg

Mean motion: 14.15661153 rev/day

Mean motion (dot): 0.00005635 rev/day2

B* drag term: 0.0028434589 1/REarth

Two-line elements (TLE)

Creation date: Sept. 3, 2025, 2:21 a.m.

Reference frame: TEME

Reference center: EARTH

Epoch: Sept. 2, 2025, 5:31 p.m. UTC

TLE line 0: 0 COSMOS 1275 DEB

TLE line 1: 1 17615U 81053KJ 25245.73036550 .00005635 00000-0 28435-2 0 9997

TLE line 2: 2 17615 82.8575 339.6358 0042114 146.5656 341.6710 14.15661153 52494

Live tracking on map

Real-time ground track for satellite COSMOS 1275 DEB.

In-orbit conjunctions

A list of the most updated potential collisions computed for object COSMOS 1275 DEB.

Target Orbit TCA Probability of collision Miss distance Type
CZ-6A DEB SSO 2024-12-25 05:21:53 0.0001158104 155.0 (m) DEBRIS
COSMOS 1275 DEB LEO 2024-11-13 06:21:00 0.0005410868 740.0 (m) DEBRIS

Associated space launch

Navigation satellite providing location information for the Tsiklon-B navigation system

COSMOS 1275 DEB was lifted into orbit during the mission ‘Kosmos-3M | Parus 27’, on board a Kosmos-3M space rocket.

The launch took place on June 4, 1981, 3:41 p.m. from 132/2.

For more information about the launch, click the button.

Launch to space Kosmos-3M | Parus 27
Kosmos-3M | Parus 27

Agency: N/A

Status: Launch Successful

Launch date: June 4, 1981, 3:41 p.m. UTC

Rocket: Kosmos-3M

Launch pad: 132/2

Location: Plesetsk Cosmodrome, Russian Federation

...

Latest news about this satellite

There are no fresh news available about this satellite. Check back as we update our databases every day.


Newsletter sign-up

Weekly statistics, charts and insights to help you stay on top of the space industry.